TimeEDT,TemperatureF,Dew PointF,Humidity,Sea Level PressureIn,VisibilityMPH,Wind Direction,Wind SpeedMPH,Gust SpeedMPH,PrecipitationIn,Events,Conditions,WindDirDegrees,DateUTC
12:15 AM,51.4,37.4,59,30.23,10.0,SSE,5.8,-,N/A,,Overcast,150,2012-10-26 04:15:00
12:35 AM,51.4,37.6,59,30.23,10.0,SE,4.6,-,N/A,,Overcast,140,2012-10-26 04:35:00
12:55 AM,50.9,37.8,61,30.23,10.0,SE,3.5,-,N/A,,Mostly Cloudy,130,2012-10-26 04:55:00
1:55 AM,49.5,39.4,68,30.22,10.0,Calm,Calm,-,N/A,,Clear,0,2012-10-26 05:55:00
2:15 AM,49.1,39.6,70,30.23,10.0,Calm,Calm,-,N/A,,Clear,0,2012-10-26 06:15:00
2:35 AM,49.3,40.1,71,30.22,10.0,Calm,Calm,-,N/A,,Clear,0,2012-10-26 06:35:00
2:55 AM,49.1,40.3,72,30.22,10.0,Calm,Calm,-,N/A,,Clear,0,2012-10-26 06:55:00
3:15 AM,49.1,40.6,73,30.22,10.0,Calm,Calm,-,N/A,,Clear,0,2012-10-26 07:15:00
3:35 AM,49.1,41.2,74,30.22,10.0,SSE,4.6,-,N/A,,Clear,160,2012-10-26 07:35:00
3:55 AM,48.9,41.2,75,30.22,10.0,SSE,5.8,-,N/A,,Clear,160,2012-10-26 07:55:00
4:15 AM,49.1,41.4,75,30.21,10.0,SSE,8.1,-,N/A,,Clear,160,2012-10-26 08:15:00
4:35 AM,48.7,41.2,75,30.21,10.0,SE,3.5,-,N/A,,Clear,130,2012-10-26 08:35:00
4:55 AM,48.6,41.0,75,30.21,10.0,SE,3.5,-,N/A,,Clear,140,2012-10-26 08:55:00
5:15 AM,48.6,40.8,75,30.21,10.0,Calm,Calm,-,N/A,,Clear,0,2012-10-26 09:15:00
5:35 AM,47.5,40.5,77,30.21,10.0,Calm,Calm,-,N/A,,Clear,0,2012-10-26 09:35:00
5:55 AM,47.5,40.6,77,30.20,10.0,Calm,Calm,-,N/A,,Clear,0,2012-10-26 09:55:00
6:35 AM,47.1,40.8,79,30.20,10.0,SE,3.5,-,N/A,,Clear,140,2012-10-26 10:35:00
6:55 AM,47.5,41.0,78,30.20,10.0,Calm,Calm,-,N/A,,Clear,0,2012-10-26 10:55:00
7:15 AM,46.8,40.6,79,30.21,10.0,SSE,3.5,-,N/A,,Clear,160,2012-10-26 11:15:00
7:35 AM,46.2,40.6,81,30.21,10.0,Calm,Calm,-,N/A,,Clear,0,2012-10-26 11:35:00
7:55 AM,46.6,41.0,81,30.21,10.0,Calm,Calm,-,N/A,,Clear,0,2012-10-26 11:55:00
8:15 AM,47.7,41.9,80,30.22,10.0,Calm,Calm,-,N/A,,Clear,0,2012-10-26 12:15:00
8:35 AM,49.1,42.6,78,30.22,10.0,Calm,Calm,-,N/A,,Clear,0,2012-10-26 12:35:00
8:55 AM,50.2,43.2,77,30.22,10.0,SSE,4.6,-,N/A,,Clear,160,2012-10-26 12:55:00
9:15 AM,50.9,43.7,76,30.22,10.0,South,8.1,-,N/A,,Clear,170,2012-10-26 13:15:00
9:35 AM,51.8,43.9,74,30.22,10.0,South,4.6,-,N/A,,Clear,180,2012-10-26 13:35:00
9:55 AM,52.7,44.1,72,30.21,10.0,South,4.6,-,N/A,,Clear,190,2012-10-26 13:55:00
10:15 AM,53.4,44.1,71,30.21,10.0,South,4.6,-,N/A,,Clear,170,2012-10-26 14:15:00
10:35 AM,55.2,44.6,67,30.21,10.0,South,3.5,-,N/A,,Clear,190,2012-10-26 14:35:00
10:55 AM,55.9,44.4,65,30.20,10.0,SSW,3.5,-,N/A,,Clear,200,2012-10-26 14:55:00
11:15 AM,57.9,44.6,61,30.20,10.0,SSE,3.5,-,N/A,,Clear,160,2012-10-26 15:15:00
11:35 AM,58.5,44.6,60,30.19,10.0,South,4.6,-,N/A,,Clear,180,2012-10-26 15:35:00
11:55 AM,59.5,45.3,59,30.19,10.0,SSE,5.8,-,N/A,,Clear,160,2012-10-26 15:55:00
12:15 PM,61.0,46.4,59,30.18,10.0,SE,6.9,-,N/A,,Clear,140,2012-10-26 16:15:00
12:35 PM,62.4,47.3,58,30.16,10.0,South,6.9,-,N/A,,Clear,170,2012-10-26 16:35:00
12:55 PM,63.5,47.7,56,30.16,10.0,South,8.1,-,N/A,,Clear,170,2012-10-26 16:55:00
1:15 PM,64.0,47.7,55,30.15,10.0,SSE,5.8,-,N/A,,Clear,150,2012-10-26 17:15:00
1:35 PM,64.9,48.2,55,30.14,10.0,SSE,6.9,-,N/A,,Clear,160,2012-10-26 17:35:00
1:55 PM,66.2,48.4,53,30.13,10.0,SE,5.8,-,N/A,,Clear,140,2012-10-26 17:55:00
2:15 PM,66.7,48.6,52,30.13,10.0,SSE,5.8,-,N/A,,Clear,160,2012-10-26 18:15:00
2:35 PM,67.6,48.6,50,30.13,10.0,South,6.9,-,N/A,,Clear,180,2012-10-26 18:35:00
2:55 PM,67.6,48.6,50,30.12,10.0,SE,6.9,-,N/A,,Clear,140,2012-10-26 18:55:00
3:15 PM,68.5,49.1,50,30.12,10.0,SSE,5.8,-,N/A,,Clear,160,2012-10-26 19:15:00
3:35 PM,68.5,49.1,50,30.12,10.0,SE,6.9,-,N/A,,Clear,130,2012-10-26 19:35:00
3:55 PM,68.5,49.1,50,30.12,10.0,SSE,5.8,-,N/A,,Clear,150,2012-10-26 19:55:00
4:15 PM,68.0,48.7,50,30.11,10.0,SSE,5.8,-,N/A,,Clear,150,2012-10-26 20:15:00
4:35 PM,67.6,48.7,51,30.11,10.0,SSE,8.1,-,N/A,,Clear,150,2012-10-26 20:35:00
4:55 PM,66.7,48.4,52,30.11,10.0,SSE,6.9,-,N/A,,Clear,160,2012-10-26 20:55:00
5:15 PM,66.2,48.6,53,30.10,10.0,SSE,6.9,-,N/A,,Clear,160,2012-10-26 21:15:00
5:35 PM,64.9,48.4,55,30.10,10.0,SSE,5.8,-,N/A,,Clear,150,2012-10-26 21:35:00
6:15 PM,63.5,48.2,57,30.11,10.0,SSE,4.6,-,N/A,,Clear,160,2012-10-26 22:15:00
6:35 PM,63.0,48.7,60,30.12,10.0,SSE,5.8,-,N/A,,Clear,160,2012-10-26 22:35:00
6:55 PM,62.2,48.4,60,30.12,10.0,SSE,4.6,-,N/A,,Clear,150,2012-10-26 22:55:00
7:15 PM,61.7,48.4,62,30.12,10.0,South,4.6,-,N/A,,Clear,170,2012-10-26 23:15:00
7:35 PM,61.7,48.2,61,30.13,10.0,SSE,3.5,-,N/A,,Clear,160,2012-10-26 23:35:00
7:55 PM,60.1,48.2,65,30.13,10.0,East,3.5,-,N/A,,Clear,90,2012-10-26 23:55:00
8:15 PM,59.5,48.2,66,30.13,10.0,Calm,Calm,-,N/A,,Clear,0,2012-10-27 00:15:00
8:35 PM,60.3,48.6,65,30.13,10.0,SSE,4.6,-,N/A,,Mostly Cloudy,150,2012-10-27 00:35:00
8:55 PM,59.9,48.4,66,30.13,10.0,SE,3.5,-,N/A,,Scattered Clouds,140,2012-10-27 00:55:00
9:15 PM,58.6,48.2,68,30.13,10.0,Calm,Calm,-,N/A,,Clear,0,2012-10-27 01:15:00
9:35 PM,57.9,48.6,71,30.13,10.0,SE,3.5,-,N/A,,Clear,140,2012-10-27 01:35:00
9:55 PM,56.7,48.4,74,30.13,10.0,SE,3.5,-,N/A,,Clear,130,2012-10-27 01:55:00
10:15 PM,56.3,48.6,75,30.14,10.0,SSE,3.5,-,N/A,,Clear,160,2012-10-27 02:15:00
10:35 PM,54.5,48.2,79,30.14,10.0,SE,3.5,-,N/A,,Clear,130,2012-10-27 02:35:00
10:55 PM,55.2,48.4,78,30.14,10.0,SSE,3.5,-,N/A,,Clear,150,2012-10-27 02:55:00
11:35 PM,53.8,48.2,81,30.14,10.0,Calm,Calm,-,N/A,,Clear,0,2012-10-27 03:35:00
11:55 PM,52.9,48.2,84,30.13,10.0,ESE,3.5,-,N/A,,Clear,110,2012-10-27 03:55:00